Location: Unspecified
(0.0000°N, 0.0000°E)
Time: 21:02:27
(UTC+02:00)

Tiros 1 despin weight - Visible Passes

Search period start: 26 September 2016 00:00
Search period end: 06 October 2016 00:00
Orbit: 596 x 644 km, 48.2° (Epoch: 26 September)

Date Brightness Start Highest point End Pass type
(mag) Time Alt. Az. Time Alt. Az. Time Alt. Az.
30 Sep ? 21:03:55 10° S 21:06:38 22° SSE 21:06:38 22° SSE visible
01 Oct ? 21:20:12 10° SSW 21:24:06 58° SSE 21:24:06 58° SSE visible
02 Oct ? 21:37:32 10° WSW 21:41:40 42° NW 21:41:40 42° NW visible
03 Oct ? 20:13:22 10° SSW 20:17:31 36° SE 20:21:36 10° ENE visible
03 Oct ? 21:56:15 10° W 21:58:55 16° NW 21:59:17 15° NW visible
04 Oct ? 20:30:09 10° SW 20:34:39 77° NW 20:39:05 10° NE visible
05 Oct ? 06:59:16 10° NNE 07:01:33 14° NE 07:03:51 10° E visible
05 Oct ? 20:48:00 10° WSW 20:51:47 26° NW 20:55:30 10° N visible
